Flag for Germany Weather past 2 weeks in Schorndorf, Baden-Württemberg, Germany

Now
54 °F

Sprinkles. Overcast.


Feels Like: 54 °F
Forecast: 44 / 60 °F
Wind: 1 mph from West

Location: Stuttgart-Echterdingen

Current Time: May 25, 2015 at 11:48:29 PM

Latest Report: May 25, 2015 at 10:00 PM


Visibility: 7 mi

Pressure: 29.96 "Hg

Humidity: 92%

Dew point: 51 °F

Location of SchorndorfLocation

Historic Weather in Schorndorf — Graph

°F

Schorndorf temperature yesterday

Maximum temperature yesterday: 65 °F (at 1:00 PM)
Minimum temperature yesterday: 56 °F (at 6:00 AM)
Average temperature yesterday: 60 °F

Past Weeks' High & Low Weather Summary

 TemperatureHumidityPressure
High84 °F (May 12, 5:00 PM)98% (May 16, 7:00 AM)30.36 "Hg (May 16, 7:00 AM)
Low37 °F (May 22, 6:00 AM)27% (May 12, 4:00 PM)29.71 "Hg (May 18, 7:00 PM)
Average58 °F66%30.06 "Hg
* Reported May 10 10:00 PM — May 25 10:00 PM, Schorndorf, Weather by CustomWeather, © 2015

Note: Actual official high and low records may vary slightly from our data, if they occured in-between our weather recording intervals... More about our weather records

Advertising

Schorndorf weather history for previous 24 hours

 ConditionsComfort  
Time TempWeatherWind HumidityBarometerVisibility
10:00 PM
Mon, May 25
54 °FSprinkles. Overcast.1 mph92%29.96 "Hg7 mi
9:00 PM54 °FOvercast.3 mph88%29.95 "Hg12 mi
8:00 PM55 °FSprinkles. Overcast.6 mph89%29.94 "Hg16 mi
7:00 PM54 °FSprinkles. Overcast.3 mph94%29.94 "Hg3 mi
6:00 PM57 °FOvercast.3 mph84%29.91 "Hg47 mi
5:00 PM57 °FSprinkles. Overcast.3 mph87%29.92 "Hg12 mi
4:00 PM61 °FSprinkles. Overcast.1 mph79%29.91 "Hg16 mi
3:00 PM59 °FOvercast.1 mph85%29.93 "Hg1 mi
2:00 PM60 °FSprinkles. Overcast.2 mph71%29.93 "Hg6 mi
1:00 PM58 °FLight rain. Overcast.5 mph83%29.95 "Hg12 mi
12:00 PM64 °FSprinkles. Overcast.1 mph63%29.94 "Hg25 mi
10:00 AM60 °FOvercast.1 mph64%29.98 "Hg31 mi
9:00 AM58 °FOvercast.1 mph69%29.99 "Hg28 mi
8:00 AM56 °FOvercast.1 mph78%29.99 "Hg28 mi
7:00 AM54 °FOvercast.No wind77%30.01 "Hg28 mi
6:00 AM54 °FOvercast.1 mph83%30.01 "Hg22 mi
4:00 AM55 °FOvercast.1 mph74%30.02 "Hg28 mi
3:00 AM56 °FOvercast.1 mph74%30.02 "Hg28 mi
2:00 AM55 °FOvercast.No wind82%30.04 "Hg28 mi
1:00 AM56 °FOvercast.1 mph76%30.04 "Hg25 mi
12:00 AM57 °FOvercast.1 mph76%30.05 "Hg19 mi
Weather by CustomWeather, © 2015

See weather overviewHow to use our weather pages